BMCB-11 Weather Reports


Display with metric or nautical units.
time (UTC)temp
F
wind
direction
speed
MPH
gust
MPH
rain 1hr
in
rain 24hr
in
rain mn
in
humidity
%
barometer
mb
20260507075021 50 0 0.0 0.0 0.00 0.01 0.00 84 1016.6
20260507074021 50 0 0.0 0.0 0.00 0.01 0.00 86 1016.5
20260507073019 50 0 0.0 0.0 0.00 0.01 0.00 88 1016.4
20260507071020 48 0 0.0 0.0 0.00 0.01 0.00 90 1016.4
20260507070019 48 0 0.0 0.0 0.00 0.01 0.00 92 1016.4
20260507064019 48 0 0.0 0.0 0.00 0.01 0.00 93 1016.3
20260507063018 48 0 0.0 0.0 0.00 0.01 0.00 94 1016.2
20260507062020 47 0 0.0 0.0 0.00 0.01 0.00 95 1016.1
20260507061021 47 0 0.0 0.0 0.00 0.01 0.00 96 1016.1
20260507060020 46 0 0.0 0.0 0.00 0.01 0.00 96 1016.0
20260507054017 46 0 0.0 0.0 0.00 0.01 0.00 98 1015.8
20260507052020 45 0 0.0 0.0 0.00 0.01 0.00 10 1015.7
20260507051018 45 0 0.0 0.0 0.00 0.01 0.00 10 1015.6
20260507045020 44 0 0.0 0.0 0.00 0.01 0.00 10 1015.4
20260507044021 44 0 0.0 0.0 0.00 0.02 0.00 10 1015.4
20260507043020 44 0 0.0 0.0 0.00 0.02 0.00 10 1015.4
20260507042021 44 0 0.0 0.0 0.00 0.02 0.00 10 1015.3
20260507041020 44 0 0.0 0.0 0.00 0.02 0.00 10 1015.3
20260507040021 44 0 0.0 0.0 0.00 0.02 0.00 10 1015.2
20260507035021 44 0 0.0 0.0 0.00 0.02 0.00 10 1015.2
20260507034021 44 0 0.0 0.0 0.00 0.02 0.00 10 1015.2
20260507033021 44 0 0.0 0.0 0.00 0.02 0.00 10 1015.1
20260507032022 44 0 0.0 0.0 0.00 0.02 0.00 10 1015.0
20260507031022 43 0 0.0 0.0 0.00 0.02 0.00 10 1015.0
20260507024019 43 0 0.0 0.0 0.00 0.02 0.00 10 1015.0
20260507023018 42 0 0.0 0.0 0.00 0.02 0.00 10 1015.0
20260507022022 42 0 0.0 0.0 0.00 0.02 0.00 10 1014.9
20260507021021 42 0 0.0 0.0 0.00 0.02 0.00 10 1014.8
20260507015020 41 0 0.0 0.0 0.00 0.03 0.00 10 1014.7
20260507013020 41 0 0.0 0.0 0.00 0.04 0.00 10 1014.7
20260507012020 41 0 0.0 0.0 0.00 0.04 0.00 10 1014.7
20260507011020 41 0 0.0 0.0 0.00 0.05 0.00 10 1014.7
20260507010023 41 0 0.0 0.0 0.00 0.05 0.00 10 1014.6
20260507005022 41 0 0.0 0.0 0.00 0.06 0.00 99 1014.7
20260507004022 41 0 0.0 0.0 0.00 0.06 0.00 99 1014.6
20260507003022 41 0 0.0 0.0 0.00 0.06 0.00 99 1014.6
20260507002020 41 0 0.0 0.0 0.00 0.06 0.00 99 1014.6
20260507001021 41 0 0.0 0.0 0.00 0.06 0.00 98 1014.5
20260506235022 42 0 0.0 0.0 0.00 0.06 0.00 98 1014.4
20260506234022 42 0 0.0 0.0 0.00 0.06 0.00 98 1014.4
20260506233046 42 0 0.0 0.0 0.00 0.06 0.00 97 1014.3
20260506232040 42 0 0.0 0.0 0.00 0.06 0.00 97 1014.2
20260506231022 42 0 0.0 0.0 0.00 0.07 0.00 96 1014.1
20260506230022 43 0 0.0 0.0 0.00 0.08 0.00 95 1014.1
20260506225037 43 0 0.0 0.0 0.00 0.08 0.00 94 1014.0
20260506221029 46 0 0.0 0.0 0.00 0.09 0.00 87 1013.7
20260506220057 47 0 0.0 0.0 0.00 0.09 0.00 86 1013.6
20260506215051 48 0 0.0 0.0 0.00 0.10 0.09 85 1013.6
20260506213049 48 0 0.0 0.0 0.00 0.11 0.09 87 1013.3
20260506212051 49 0 0.0 0.0 0.00 0.11 0.09 91 1013.3
20260506211049 49 0 0.0 0.0 0.00 0.11 0.09 90 1013.2
20260506210044 50 0 0.0 0.0 0.00 0.11 0.09 90 1013.1
20260506205050 50 0 0.0 0.0 0.00 0.11 0.09 89 1012.9
20260506204048 50 0 0.0 0.0 0.00 0.12 0.09 89 1012.9
20260506202051 50 0 0.0 0.0 0.00 0.12 0.09 88 1012.7
20260506201053 50 0 0.0 0.0 0.00 0.12 0.09 87 1012.6
20260506200051 51 0 0.0 0.0 0.00 0.12 0.09 86 1012.5
20260506195047 51 0 0.0 0.0 0.00 0.12 0.09 85 1012.3
20260506194050 51 0 0.0 0.0 0.00 0.13 0.09 86 1012.2
20260506193049 51 0 0.0 0.0 0.00 0.13 0.09 87 1012.2
20260506192049 51 0 0.0 0.0 0.00 0.13 0.09 88 1012.1
20260506191049 51 0 0.0 0.0 0.00 0.13 0.09 88 1012.0
20260506190051 51 0 0.0 0.0 0.00 0.13 0.09 89 1011.9
20260506185048 51 0 0.0 0.0 0.00 0.13 0.09 90 1011.8
20260506184041 51 0 0.0 0.0 0.00 0.13 0.09 89 1011.7
20260506183051 51 0 0.0 0.0 0.00 0.13 0.09 89 1011.6
20260506182051 51 0 0.0 0.0 0.00 0.13 0.09 88 1011.5
20260506181046 51 0 0.0 0.0 0.00 0.13 0.09 88 1011.4
20260506180049 51 0 0.0 0.0 0.00 0.13 0.09 88 1011.3
20260506175051 52 0 0.0 0.0 0.00 0.13 0.09 88 1011.2
20260506174048 52 0 0.0 0.0 0.00 0.13 0.09 88 1011.0
20260506173047 52 0 0.0 0.0 0.00 0.13 0.09 88 1010.9
20260506172049 52 0 0.0 0.0 0.00 0.13 0.09 88 1010.9
20260506171048 52 0 0.0 0.0 0.00 0.13 0.09 87 1010.8
20260506170048 52 0 0.0 0.0 0.00 0.13 0.09 87 1010.8
20260506165045 53 0 0.0 0.0 0.00 0.13 0.09 86 1010.7
20260506164048 53 0 0.0 0.0 0.00 0.13 0.09 85 1010.7
20260506162046 53 0 0.0 0.0 0.00 0.13 0.09 85 1010.7
20260506161048 53 0 0.0 0.0 0.00 0.13 0.09 86 1010.7
20260506160047 53 0 0.0 0.0 0.00 0.13 0.09 86 1010.7
20260506155048 53 0 0.0 0.0 0.00 0.13 0.09 86 1010.7
20260506154052 53 0 0.0 0.0 0.00 0.13 0.09 86 1010.7
20260506153048 53 0 0.0 0.0 0.00 0.13 0.09 84 1010.7
20260506151050 53 0 0.0 0.0 0.00 0.13 0.09 83 1010.6
20260506150048 53 0 0.0 0.0 0.00 0.13 0.09 83 1010.6
20260506145050 54 0 0.0 0.0 0.00 0.13 0.09 83 1010.6
20260506144047 54 0 0.0 0.0 0.00 0.13 0.09 82 1010.4
20260506143045 54 0 0.0 0.0 0.00 0.13 0.09 82 1010.4
20260506142047 54 0 0.0 0.0 0.00 0.13 0.09 82 1010.4
20260506141047 54 0 0.0 0.0 0.00 0.13 0.09 83 1010.5
20260506135049 54 0 0.0 0.0 0.01 0.13 0.09 83 1010.4
20260506133047 53 0 0.0 0.0 0.01 0.13 0.09 86 1010.5
20260506132048 53 0 0.0 0.0 0.01 0.13 0.09 87 1010.5
20260506131047 52 0 0.0 0.0 0.01 0.13 0.09 89 1010.6
20260506125047 52 0 0.0 0.0 0.01 0.13 0.09 90 1010.4
20260506124045 52 0 0.0 0.0 0.00 0.12 0.09 89 1010.3
20260506123048 53 0 0.0 0.0 0.00 0.12 0.09 91 1010.2
20260506122048 52 0 0.0 0.0 0.00 0.12 0.09 93 1010.3
20260506121045 51 0 0.0 0.0 0.00 0.13 0.09 96 1010.4
20260506120046 50 0 0.0 0.0 0.00 0.13 0.09 97 1010.4
20260506115047 50 0 0.0 0.0 0.00 0.13 0.09 96 1010.4
20260506114022 50 0 0.0 0.0 0.00 0.13 0.09 95 1010.5
20260506113016 50 0 0.0 0.0 0.00 0.13 0.09 96 1010.5
20260506111021 49 0 0.0 0.0 0.00 0.13 0.09 98 1010.5
20260506110021 49 0 0.0 0.0 0.00 0.13 0.09 99 1010.5
20260506105022 48 0 0.0 0.0 0.00 0.13 0.09 10 1010.6
20260506103021 48 0 0.0 0.0 0.00 0.13 0.09 99 1010.4
20260506102023 48 0 0.0 0.0 0.00 0.13 0.09 99 1010.4
20260506101018 48 0 0.0 0.0 0.00 0.13 0.09 99 1010.3
20260506100021 48 0 0.0 0.0 0.00 0.13 0.09 99 1010.2
20260506095023 48 0 0.0 0.0 0.00 0.13 0.09 98 1010.2
20260506094030 48 0 0.0 0.0 0.00 0.13 0.09 98 1010.2
20260506093022 48 0 0.0 0.0 0.00 0.13 0.09 98 1010.2
20260506092022 47 0 0.0 0.0 0.00 0.13 0.09 98 1010.1
20260506091023 47 0 0.0 0.0 0.00 0.13 0.09 99 1010.0
20260506090023 47 0 0.0 0.0 0.00 0.13 0.09 99 1009.9
20260506085021 47 0 0.0 0.0 0.00 0.13 0.09 98 1009.9
20260506084022 47 0 0.0 0.0 0.00 0.13 0.09 98 1009.8
20260506083022 47 0 0.0 0.0 0.00 0.13 0.09 97 1009.8
20260506082023 47 0 0.0 0.0 0.00 0.13 0.09 95 1009.7
20260506081023 47 0 0.0 0.0 0.00 0.13 0.09 94 1009.7